EW7711 Weather Reports


time (UTC)temp
C
wind
direction
speed
KPH
gust
KPH
rain 1hr
cm
rain 24hr
cm
rain mn
cm
humidity
%
barometer
mb
20260504035624 18 334 30.6 41.8 0.00 0.00 0.00 31 1004.9
20260504034721 18 289 16.1 22.5 0.00 0.00 0.00 30 1004.1
20260504033722 19 291 17.7 29.0 0.00 0.00 0.00 29 1004.0
20260504032722 18 289 19.3 27.4 0.00 0.00 0.00 29 1004.1
20260504031740 17 272 12.9 17.7 0.00 0.00 0.00 30 1004.0
20260504030722 16 249 14.5 16.1 0.00 0.00 0.00 32 1003.8
20260504025723 16 250 12.9 16.1 0.00 0.00 0.00 34 1003.8
20260504024722 15 247 11.3 14.5 0.00 0.00 0.00 35 1003.7
20260504022822 16 247 11.3 16.1 0.00 0.00 0.00 32 1003.5
20260504021822 16 247 12.9 16.1 0.00 0.00 0.00 31 1003.7
20260504020920 16 247 12.9 16.1 0.00 0.00 0.00 31 1003.7
20260504015922 16 247 11.3 12.9 0.00 0.00 0.00 29 1003.7
20260504014922 17 247 11.3 14.5 0.00 0.00 0.00 28 1003.9
20260504013922 18 248 12.9 14.5 0.00 0.00 0.00 27 1003.9
20260504012921 18 247 14.5 19.3 0.00 0.00 0.00 25 1004.2
20260504011923 20 247 16.1 20.9 0.00 0.00 0.00 23 1004.4
20260504010923 20 248 19.3 25.7 0.00 0.00 0.00 23 1004.5
20260504004922 21 251 19.3 24.1 0.00 0.00 0.00 22 1004.9
20260504003923 21 261 22.5 27.4 0.00 0.00 0.00 22 1005.1
20260504002937 21 252 20.9 29.0 0.00 0.00 0.00 21 1005.2
20260504001921 21 273 27.4 32.2 0.00 0.00 0.00 20 1005.2
20260504000921 22 285 20.9 27.4 0.00 0.00 0.00 20 1005.4
20260503235021 22 281 24.1 33.8 0.00 0.00 0.00 20 1005.7
20260503234023 22 266 17.7 24.1 0.00 0.00 0.00 20 1005.7
20260503232021 22 250 29.0 30.6 0.00 0.00 0.00 24 1006.0
20260503231021 22 274 29.0 40.2 0.00 0.00 0.00 24 1006.0
20260503230021 22 251 25.7 32.2 0.00 0.00 0.00 23 1005.9
20260503225022 22 275 33.8 40.2 0.00 0.00 0.00 23 1006.1
20260503224022 22 248 32.2 41.8 0.00 0.00 0.00 24 1006.1
20260503223023 23 250 25.7 29.0 0.00 0.00 0.00 24 1006.5
20260503222121 23 251 25.7 30.6 0.00 0.00 0.00 23 1006.6
20260503220221 23 261 25.7 30.6 0.00 0.00 0.00 23 1007.1
20260503215320 22 253 30.6 37.0 0.00 0.00 0.00 23 1007.1
20260503214337 22 244 32.2 40.2 0.00 0.00 0.00 25 1007.4
20260503213322 22 247 27.4 33.8 0.00 0.00 0.00 24 1007.7
20260503212322 22 249 25.7 33.8 0.00 0.00 0.00 25 1007.9
20260503211420 22 284 30.6 35.4 0.00 0.00 0.00 23 1008.1
20260503210421 22 251 29.0 38.6 0.00 0.00 0.00 24 1008.4
20260503205422 22 247 33.8 49.9 0.00 0.00 0.00 24 1008.8
20260503204421 22 277 24.1 33.8 0.00 0.00 0.00 24 1009.0
20260503203422 22 247 27.4 37.0 0.00 0.00 0.00 25 1009.2
20260503201522 21 248 22.5 29.0 0.00 0.00 0.00 26 1009.7
20260503200521 21 247 35.4 45.1 0.00 0.00 0.00 26 1009.8
20260503195523 22 248 37.0 45.1 0.00 0.00 0.00 27 1010.1
20260503194522 21 254 22.5 27.4 0.00 0.00 0.00 27 1010.4
20260503193523 22 247 25.7 40.2 0.00 0.00 0.00 26 1010.6
20260503192620 21 260 29.0 35.4 0.00 0.00 0.00 26 1010.9
20260503191622 21 248 29.0 37.0 0.00 0.00 0.00 27 1011.0
20260503190623 21 261 16.1 25.7 0.00 0.00 0.00 26 1011.4
20260503185621 21 278 20.9 30.6 0.00 0.00 0.00 28 1011.6
20260503184622 21 247 35.4 40.2 0.00 0.00 0.00 27 1011.7
20260503183623 20 247 19.3 25.7 0.00 0.00 0.00 27 1011.9
20260503182621 20 251 24.1 25.7 0.00 0.00 0.00 26 1012.1
20260503180721 20 256 25.7 35.4 0.00 0.00 0.00 28 1012.6
20260503175820 20 268 20.9 24.1 0.00 0.00 0.00 28 1012.9
20260503174920 20 254 25.7 33.8 0.00 0.00 0.00 28 1013.0
20260503173922 19 247 22.5 33.8 0.00 0.00 0.00 29 1013.2
20260503172921 19 247 25.7 33.8 0.00 0.00 0.00 28 1013.7
20260503171920 19 255 19.3 22.5 0.00 0.00 0.00 29 1013.9
20260503170921 19 247 20.9 27.4 0.00 0.00 0.00 31 1013.9
20260503150221 16 247 25.7 30.6 0.00 0.00 0.00 33 1016.1
20260503131321 7 247 12.9 16.1 0.00 0.00 0.00 59 1016.6
20260503130321 6 247 11.3 14.5 0.00 0.00 0.00 60 1016.6
20260503110621 0 247 9.7 11.3 0.00 0.00 0.00 71 1016.6
20260503080923 4 292 6.4 6.4 0.00 0.00 0.00 57 1017.6
20260503072221 6 292 3.2 4.8 0.00 0.00 0.00 49 1017.9
20260503071223 6 292 4.8 4.8 0.00 0.00 0.00 49 1018.0
20260503070221 7 292 4.8 4.8 0.00 0.00 0.00 48 1018.1
20260503060322 7 315 4.8 6.4 0.00 0.00 0.00 49 1018.1
20260503054417 7 326 4.8 6.4 0.00 0.00 0.00 48 1018.1
20260503053417 8 315 6.4 8.0 0.00 0.00 0.00 48 1017.9
20260503052419 7 337 4.8 6.4 0.00 0.00 0.00 50 1017.9
20260503050418 7 292 3.2 3.2 0.00 0.00 0.00 53 1017.9
20260503045418 7 308 3.2 4.8 0.00 0.00 0.00 54 1017.9
20260503044418 7 337 3.2 4.8 0.00 0.00 0.00 53 1018.1
20260503044317 7 337 3.2 4.8 0.00 0.00 0.00 53 1018.1
20260503042318 8 337 1.6 3.2 0.00 0.00 0.00 51 1018.1
20260503041318 8 337 3.2 4.8 0.00 0.00 0.00 51 1018.1